THOR ABLESTAR DEB, 1942

Orbit data source: Space-Track

THOR ABLESTAR DEB, 1942 is space debris in LEO originally from a launch on Thu, 29 Jun 1961 UTC launched from the Air Force Eastern Test Range (AFETR). Debris objects in space refer to the collection of defunct objects orbiting the Earth. Examples of debris include non-operational satellites, rocket bodies, and fragments generated from explosions, collisions, or faulty payload assembly.

Loading next visibility...
Identifier
1942, 1961-015HS
Orbit
LEO
Country
Flag of USUS
Related business
Manufacturer
Unknown
Mission
Spacecraft
Bus & Motor
Unknown
Mass
Unknown
Launch date (UTC)
1961-06-29 (65 years ago)
Launch vehicle
Unknown
Launch site
Air Force Eastern Test Range (AFETR)
Object type
Payload
Rocket body
Debris
Shape & HBR
Unknown shape, 0.1 m
Radar Cross Section
Small (<0.1 m²)

Expand to show TLE details & history
Last TLE update: 9 hours ago

TLE from 9 hours ago
0 THOR ABLESTAR DEB
1  1942U 61015HS  26124.30766389  .00000390  00000-0  91048-3 0  9993
2  1942  67.2681  92.2875 0347599 279.8045 232.6605 13.13370036111052
Epoch: 2026-05-04T07:23Z
TLE epoch observation values (Epoch: 2026-05-04T07:23:02.160Z)
Latitude
28.07115°
Longitude
-73.51629°
Altitude
1,378.365 km
Speed
7.094 km/s
True Right ascension
17h 17m 45s
True Declination
27° 56' 24"
Sunlit
Object was in daylight at epoch
Visualization orbit readout
Latitude
Unknown
Longitude
Unknown
Altitude
Unknown
Speed
Unknown
Apparent Right ascension
Unknown
Apparent Declination
Unknown
Sunlit
N/A
Visualization observer readout
Local Sidereal Time
23:57:36
Azimuth
Unknown
Elevation
Unknown
Doppler factor
Unknown
Orbital elements
Apogee altitude
1,472.263 km
Perigee altitude
944.838 km
Semi-major axis
7,586.687 km
Eccentricity
0.03476
Inclination
67.2681°
RAAN
92.2875°
Arg. of periapsis
279.8045°
True anomaly
229.57652°
Mean anomaly
232.6605°
Eccentric anomaly
231.11033°
Mean motion
3.28447 °/min
Orbital period
109.61 mins
BSTAR
0.00091048
Loading maneuver chart data...
Computing Atmospheric mass density...
Loading historical data...
Loading historical data...
Loading historical data...
Loading historical data...
Loading historical data...
Loading historical data...
Loading historical data...

Documentation

Showing up to 5 results
|